Location: Sunkist
(34.0772°N, 117.1909°W)
Time: 15:46:25
(UTC+00:00)

Cosmos 1707 - Pass Details

Date: 13 April 2024
Orbit: 475 x 487 km, 82.5° (Epoch: 26 May)

Event Time Altitude Azimuth Distance (km) Brightness Sun altitude
Rises 00:14:19 0° 347° (NNW) 2,578 6.3 24.7°
Reaches altitude 10° 00:16:28 10° 341° (NNW) 1,691 5.6 24.3°
Drops below altitude 10° 00:23:35 10° 192° (SSW) 1,675 5.6 22.8°
Enters shadow 00:56:35 -68° 166° (SSE) 12,327 9.4 16.0°
Exits shadow 01:16:18 -71° 23° (NNE) 12,559 9.5 11.9°
Maximum altitude 12:25:29 55° 94° (E) 587 3.3 -11.6°
